{"data":{"norad_id":60548,"epoch":"2026-09-22T16:48:37.463040Z","epoch_age_seconds":98938,"freshness":"FRESH","line1":"1 60548U 24149CJ  26265.70043360  .00002823  00000+0  22479-3 0  9998","line2":"2 60548  97.7512 344.4639 0001221  61.2124 298.9223 15.01194543114836","mean_motion":15.01194543,"eccentricity":0.0001221,"inclination_deg":97.7512,"raan_deg":344.4639,"arg_perigee_deg":61.2124,"mean_anomaly_deg":298.9223,"bstar":0.00022479,"rev_number":11483,"period_min":95.923610082028,"perigee_km":562.36407843056,"apogee_km":564.05915576285,"semimajor_km":6941.3486170967,"source":"CELESTRAK","updated_at":"2026-09-23T09:00:20.673365Z"}}